Regional Weather Roundup
Issued by NWS Grand Forks, ND

Home | Current Version | Previous Version | Text Only | Print | Product List | Glossary Off
Versions: 1 2 3 4 5 6 7 8 9 10 11 12 13 14 15 16 17 18 19 20 21 22 23 24 25 26 27 28 29 30 31 32 33 34 35 36 37 38 39 40 41 42 43 44 45 46 47 48 49 50

755
ASUS43 KFGF 280910
RWRFGF
PRAIRIE TO PINES  WEATHER ROUNDUP
NATIONAL WEATHER SERVICE EASTERN NORTH DAKOTA/GRAND FORKS ND
400 AM CDT SAT MAY 28 2016

 **SATELLITE DATA USED TO AUGMENT SKY COVER AT AUTOMATED STATIONS**
 *****  WEATHER ACROSS EASTERN NORTH DAKOTA  *****

CITY           SKY/WX    TMP DP  RH WIND       PRES   REMARKS
GRAND FORKS    CLOUDY    62  58  86 E3        29.82R
GRAND FRKS AFB CLOUDY    59  59 100 NW2       29.82S FOG
GRAND FRKS NWS   N/A     61 N/A N/A SE7         N/A
DEVILS LAKE    CLOUDY    56  55  97 N10       29.87R FOG
FARGO          CLOUDY    59  56  89 E6        29.80S
WAHPETON ARPT  CLOUDY    59  54  82 NE3       29.80R
$$

 ***** WEATHER ACROSS CENTRAL AND WESTERN NORTH DAKOTA  *****

CITY           SKY/WX    TMP DP  RH WIND       PRES   REMARKS
BISMARCK       CLOUDY    51  50  96 NE3       29.85R
MINOT          CLOUDY    56  54  93 NE8       29.87S FOG
JAMESTOWN      LGT RAIN  58  57  97 NW3       29.81R
MINOT AFB      CLOUDY    54  54 100 NE8       29.87S
GARRISON         N/A     57  54  89 NE6       29.86R
WILLISTON      CLOUDY    57  53  86 E8        29.88S
DICKINSON      CLOUDY    47  44  90 S3        29.84S
HETTINGER      PTCLDY    39  37  92 NW3       29.87S
$$

 *****  OTHER AIRPORT OBSERVATIONS IN OUR AREA  *****

CITY           SKY/WX    TMP DP  RH WIND       PRES   REMARKS
WALHALLA       FAIR      57  57 100 N8        29.86R
GRAFTON AIRPOR FAIR      59  59 100 N7        29.85R
VALLEY CITY AR CLOUDY    57  57 100 CALM      29.83S
CANDO          NOT AVBL
CAVALIER APRT  CLOUDY    57  57 100 NW7       29.84S
GWINNER        PTSUNNY   59  59 100 NW5       29.80S
SHEYENNE NWR     N/A     58  58 100 CALM      29.95S
ROLLA          CLOUDY    50  50 100 N9        29.90S
 ***** THE ABOVE OBSERVATIONS ARE NON NWS ARE NOT QUALITY
       CONTROLLED AND MAY MIS-REPORT RAIN FOR SNOW...
$$

  *****  WEATHER ACROSS NORTHERN MINNESOTA  *****

CITY           SKY/WX    TMP DP  RH WIND       PRES   REMARKS
FLAG ISLAND    CLOUDY    61  55  82 NE5       29.85S
WARROAD        CLOUDY    57  54  88 CALM      29.86S
ROSEAU         CLOUDY    55  52  88 E6        29.85S
HALLOCK        DRIZZLE   63  57  82 SE6       29.84R
THF RVR FALLS  CLOUDY    57  54  88 NE3       29.86R
BAUDETTE       CLOUDY    58  53  84 CALM      29.84S
WASKISH        CLOUDY    57  55  94 NE3       29.83S
CROOKSTON      CLOUDY    61  57  88 E6        29.84R
STEPHEN NDAWN    N/A     61  57  88 E5          N/A
GREENBUSH NDAW   N/A     57  55  94 E2          N/A
$$
  *****  WEATHER ACROSS CENTRAL AND WEST MINNESOTA  *****

CITY           SKY/WX    TMP DP  RH WIND       PRES   REMARKS
FOSSTON        PTCLDY    52  50  93 CALM      29.84S
BEMIDJI        CLOUDY    55  54  94 CALM      29.83S
PARK RAPIDS    CLOUDY    59  54  83 NE5       29.80F
ELBOW LAKE     CLOUDY    58  56  91 NE3       29.79S
WADENA         CLOUDY    55  54  94 N3        29.80F
DETROIT LAKES  CLOUDY    55  54  94 E3        29.82F
MOORHEAD       MOCLDY    57  55  94 CALM      29.81S
FERGUS FALLS   CLOUDY    57  57 100 NE3       29.77S
MORRIS MN      MOCLDY    57  57 100 NE7       29.77S
STAPLES        CLOUDY    55  55 100 N3        29.79F
$$
  *****  WEATHER ELSEWHERE ACROSS MINNESOTA  *****

CITY           SKY/WX    TMP DP  RH WIND       PRES   REMARKS
DULUTH         DRIZZLE   52  51  97 CALM      29.77F FOG
INTRNTL FALLS  LGT RAIN  59  54  83 E8        29.84R
ELY            RAIN      55  54  94 NE7       29.80S
CLOQUET        CLOUDY    50  48  93 CALM      29.77F FOG
WHEATON        CLOUDY    59  57  94 NE5       29.80R
BRAINERD       CLOUDY    56  55  97 N8        29.79F FOG
HIBBING        CLOUDY    53  53 100 N6        29.79F FOG
ALEXANDRIA     CLOUDY    58  54  86 NE5       29.79F
SAINT CLOUD    CLOUDY    57  55  93 N6        29.76S
MINNEAPOLIS    CLOUDY    62  60  93 NW5       29.76R
$$

  *****  WEATHER ACROSS SOUTH DAKOTA  *****

CITY           SKY/WX    TMP DP  RH WIND       PRES   REMARKS
SIOUX FALLS    LGT RAIN  62  59  90 N5        29.71F
BROOKINGS      CLOUDY    59  58  96 NE6       29.73F
WATERTOWN      CLOUDY    60  59  96 N7        29.77S FOG
HURON          CLOUDY    59  57  93 N10       29.75S
SISSETON         N/A     58  56  93 CALM      29.77S
ABERDEEN       MOCLDY    60  57  89 N6        29.79S
MITCHELL       CLOUDY    61  58  90 N6        29.73F
PIERRE         CLOUDY    58  53  84 NW8       29.78F
MOBRIDGE       CLOUDY    55  51  86 NW6       29.79S
RAPID CITY     CLEAR     45  43  93 NW8       29.87R
$$

  *****  SOME WEATHER IN NEARBY STATES *****

CITY           SKY/WX    TMP DP  RH WIND       PRES   REMARKS
GLASGOW MT     MOCLDY    53  49  86 E12       29.83S
GREAT FALLS MT CLOUDY    46  42  86 SW5       29.95S
CHEYENNE WY    PTCLDY    42  35  76 NW7       29.97R
SCOTTSBLUFF NE PTCLDY    40  38  93 NE5       29.91R
OMAHA NE       CLOUDY    62  59  90 SE8       29.71R
DES MOINES IA  LGT RAIN  64  60  87 S8        29.74R
DAVENPORT IA   CLOUDY    67  65  93 S10       29.74F
CHICAGO IL     CLOUDY    68  64  87 S8        29.85S
EAU CLAIRE WI  FOG       62  62 100 CALM      29.75S VSB 1/2
LA CROSSE WI   CLOUDY    67  65  93 CALM      29.72F
$$

  *****  SOME NATIONAL WEATHER *****

CITY           SKY/WX    TMP DP  RH WIND       PRES   REMARKS
LA GUARDIA NY  PTCLDY    74  63  68 SW8       30.08R
RALEIGH NC     PTCLDY    62  59  90 CALM      30.16R
ATLANTA GA     PTCLDY    68  59  73 S7        30.10S
NEW ORLEANS LA CLOUDY    75  71  87 S7        29.97R
OKLAHOMA CITY  MOCLDY    62  61  96 S7        29.84R
ALBUQUERQUE NM CLEAR     56  25  30 SW3       30.01R
SALT LAKE CITY MOCLDY    57  47  69 N3        29.97S
LOS ANGELES CA CLOUDY    61  54  77 SE5       29.86F
BOISE ID       PTCLDY    48  32  53 W6        30.02R
SEATTLE WA     CLOUDY    51  42  71 S8        30.13F
$$

*** WEATHER ACROSS MANITOBA...SASKATCHEWAN AND ONTARIO ***
                ***ONTARIO***

CITY           SKY/WX    TMP DP  RH WIND       PRES   REMARKS
GERALDTON      LGT RAIN  59  55  88 N5        29.95R
THUNDER BAY    LGT RAIN  59  57  94 NE13G20   29.82F FOG
SIOUX LOOKOUT  CLOUDY    57  55  94 NE6       29.91S
TORONTO        MOCLDY    68  59  73 CALM      30.03R
BIG TROUT LK   LGT RAIN  37  36  93 NE8       30.17F FOG
PICKLE LAKE    NOT AVBL
DRYDEN         LGT RAIN  57  57 100 NE13G20   29.88S
KENORA         CLOUDY    57  57 100 NE7       29.89S
$$
                *** MANITOBA***

CITY           SKY/WX    TMP DP  RH WIND       PRES   REMARKS
BRANDON        CLOUDY    52  50  93 NE15      29.92S
DAUPHIN        CLOUDY    48  45  87 N9        29.99R
ISLAND LAKE    CLOUDY    41  39  93 E9G17     30.14S
PILOT MOUND      N/A     54  52  94 N12         N/A
THE PAS        CLOUDY    45  39  81 E6        30.09S
THOMPSON       CLOUDY    39  34  81 E7        30.21F
WINNIPEG       CLOUDY    57  55  94 NE12      29.88R
LYNN LAKE      CLOUDY    39  36  87 SE12G18   30.16S
CHURCHILL      FLURRIES  28  27  93 S6        30.37R WCI  22
$$
                ***SASKATCHEWAN***

CITY           SKY/WX    TMP DP  RH WIND       PRES   REMARKS
ESTEVAN        LGT RAIN  52  50  93 E10       29.92R FOG
KINDERSLEY     CLOUDY    54  52  94 SE7       29.84F
LLOYDMINSTER   MOCLDY    52  52 100 SE8       29.84R
PRINCE ALBERT  CLOUDY    46  45  93 E9G18     29.97S
REGINA         NOT AVBL
YORKTON        CLOUDY    46  45  93 NE12      29.98F
N. BATTLEFORD  MOCLDY    54  52  94 E14       29.89S
LA RONGE       CLEAR     43  39  87 E6        30.02S
SASKATOON      PTCLDY    54  50  87 SE15      29.91R
SWIFT CURRENT  CLOUDY    54  50  87 E9        29.85F
$$
NOTE: THESE ARE AUTOMATED STATIONS WITH LIMITED QUALITY CONTROL
      "FAIR" INDICATES FEW OR NO CLOUDS BELOW 12,000 FEET WITH NO
      SIGNIFICANT WEATHER AND/OR OBSTRUCTIONS TO VISIBILITY.
      SKY/WX - SKY CONDITION AND SIGNIFICANT WEATHER.
      TMP - AIR TEMPERATURE.    DP   - DEWPOINT TEMPERATURE.
      RH  - RELATIVE HUMIDITY.  PRES - PRESSURE.
      HX  - HEAT INDEX.         WCI  - WIND CHILL INDEX.
$




USA.gov is the U.S. government's official web portal to all federal, state and local government web resources and services.